Home   Weather   Gmünd   Past weeks

Flag for Austria Past Weather in Gmünd, Lower Austria, Austria — Yesterday and Last 2 Weeks

Now
21 °F

Cold.


Feels Like: 21 °F
Forecast: 6 / 20 °F
Wind: 2 mph from Northeast

Location: Retz

Current Time: Jan 20, 2017 at 1:21:55 pm

Latest Report: Jan 20, 2017 at 12:00 pm


Visibility: N/A

Pressure: 30.67 "Hg

Humidity: 76%

Dew Point: 15 °F

Location of GmündLocation

Past Weather in Gmünd — Graph

°F

Gmünd Temperature Yesterday

Maximum temperature yesterday: 26 °F (at 3:00 pm)
Minimum temperature yesterday: 13 °F (at 6:00 am)
Average temperature yesterday: 18 °F

High & Low Weather Summary for the Past Weeks

 TemperatureHumidityPressure
High42 °F (Jan 12, 2:00 pm)98% (Jan 12, 11:00 pm)30.73 "Hg (Jan 12, 11:00 pm)
Low9 °F (Jan 11, 2:00 am)53% (Jan 7, 1:00 pm)29.44 "Hg (Jan 13, 6:00 am)
Average23 °F77%30.25 "Hg
* Reported Jan 5 11:00 am — Jan 20 11:00 am, Gmünd, Weather by CustomWeather, © 2017

Note: Actual official high and low records may vary slightly from our data, if they occured in-between our weather recording intervals... More about our weather records

Advertising

Gmünd Weather History for the Previous 24 Hours

Scroll right to see more
 ConditionsComfort  
Time TempWeatherWind HumidityBarometerVisibility
11:00 am
Fri, Jan 20
18 °FCold.2 mph78%30.69 "HgN/A
10:00 am16 °FCold.1 mph76%30.70 "HgN/A
9:00 am13 °FCold.No wind85%30.71 "HgN/A
8:00 am12 °FCold.2 mph86%30.69 "HgN/A
7:00 am11 °FFog.1 mph86%30.71 "Hg2 mi
6:00 am11 °FCold.1 mph86%30.70 "HgN/A
5:00 am13 °FCold.1 mph85%30.70 "HgN/A
4:00 am15 °FCold.1 mph82%30.69 "HgN/A
3:00 am13 °FCold.3 mph83%30.71 "HgN/A
2:00 am15 °FCold.1 mph80%30.70 "HgN/A
1:00 am16 °FCold.No wind78%30.70 "HgN/A
12:00 am16 °FCold.1 mph79%30.71 "HgN/A
11:00 pm
Thu, Jan 19
17 °FCold.2 mph77%30.71 "HgN/A
10:00 pm17 °FCold.5 mph77%30.71 "HgN/A
9:00 pm18 °FCold.2 mph75%30.70 "HgN/A
8:00 pm19 °FCold.1 mph76%30.68 "HgN/A
7:00 pm20 °FClear.No wind75%30.69 "Hg3 mi
6:00 pm20 °FCold.1 mph74%30.68 "HgN/A
5:00 pm22 °FCold.2 mph72%30.68 "HgN/A
4:00 pm24 °FCold.2 mph67%30.67 "HgN/A
3:00 pm26 °FChilly.2 mph63%30.67 "HgN/A
2:00 pm25 °FCold.1 mph64%30.67 "HgN/A
1:00 pm25 °FSunny.2 mph70%30.68 "Hg4 mi
Weather by CustomWeather, © 2017

See weather overviewHow to use our weather pages